Weather Roundup
Issued by NWS

Home | Current Version | Previous Version | Graphics & Text | Print | Product List | Glossary Off
Versions: 1 2 3 4 5 6 7 8 9 10 11 12 13 14 15 16 17 18 19 20 21 22 23 24 25 26 27 28 29 30 31 32 33 34 35 36 37 38 39 40 41 42 43 44 45 46 47 48 49 50

000
NZUS93 KARX 030810
HRRWXR

CURRENT HOURLY OBSERVATIONS ACROSS
MUCH OF THE UPPER MISSISSIPPI VALLEY
NATIONAL WEATHER SERVICE LA CROSSE WI
300 AM CDT FRI JUL 03 2015


...SOUTHEAST MINNESOTA...


CITY           SKY/WX    TMP DP  RH WIND       PRES   REMARKS
ROCHESTER      PTCLDY    56  53  90 S6        30.01R
ROCHESTER/MAYO FAIR      59  55  89 CALM      30.01R
WINONA         PTCLDY    55  55 100 CALM      29.99S
AUSTIN         PTCLDY    59  55  88 CALM      30.00S
ALBERT LEA     CLEAR     57  55  94 CALM      30.01S
DODGE CENTER   CLEAR     55  52  88 SW5       30.01R
PRESTON        PTCLDY    56  53  90 SW5       30.01S
OWATONNA       CLEAR     55  52  88 S3        30.00S
FARIBAULT      CLEAR     55  54  94 CALM      29.99S
$$

...ELSEWHERE IN MINNESOTA...


CITY           SKY/WX    TMP DP  RH WIND       PRES   REMARKS
MINNEAPOLIS    CLEAR     65  55  70 CALM      29.98S
INTNL FALLS    CLOUDY    64  57  78 W6        29.86S
DULUTH         MOCLDY    64  55  72 W9        29.92F
RED WING       CLEAR     55  54  94 CALM      29.97S
REDWOOD FALLS  CLEAR     56  50  80 SW7       29.99S
MANKATO        CLEAR     61  52  72 SW5       30.00R
WORTHINGTON    CLEAR     52  46  82 S5        30.02F
FAIRMONT       CLEAR     55  46  71 CALM      30.01S
$$

...SOUTHWEST WISCONSIN...


CITY           SKY/WX    TMP DP  RH WIND       PRES   REMARKS
LA CROSSE      PTCLDY    57  55  93 SE5       29.99S
PRAIRIE DU CHI MOCLDY    55  53  94 E3        29.99S
BOSCOBEL       MOCLDY    52  50  93 CALM      30.00S
LONE ROCK      MOCLDY    51  49  92 CALM      30.00F
PLATTEVILLE    MOCLDY    56  51  84 E5        29.99F
FORT MC COY    PTCLDY    46  45  95 CALM      30.01S
CAMP DOUGLAS   FOG       46  46 100 CALM      29.99S VSB 1/4
VIROQUA        FAIR      56  52  86 CALM      30.00F
WIS DELLS      PTCLDY    51  47  87 CALM      30.00S
$$

...ELSEWHERE IN WISCONSIN...


CITY           SKY/WX    TMP DP  RH WIND       PRES   REMARKS
MILWAUKEE      PTCLDY    53  47  79 CALM      29.99F
MADISON        MOCLDY    51  47  86 CALM      29.99F
GREEN BAY      CLEAR     53  50  89 CALM      29.99F
EAU CLAIRE     CLEAR     57  56  96 CALM      29.98S FOG
BLACK RVR FLS  FAIR      46  46 100 CALM      29.99F
MEDFORD        CLEAR     56  50  81 S3        30.01R
WAUSAU         CLEAR     54  51  90 E3        29.99S
WIS RAPIDS     CLEAR     55  47  74 CALM      30.01S
MARSHFIELD     CLEAR     55  50  83 SW3       30.00S
RICE LAKE      CLEAR     54  53  95 CALM      30.00S FOG
$$

...NORTHEAST IOWA...


CITY           SKY/WX    TMP DP  RH WIND       PRES   REMARKS
DECORAH          N/A    N/A N/A N/A MISG        N/A
MASON CITY     PTCLDY    55  53  93 CALM      30.02S
CHARLES CITY   MOCLDY    55  55 100 CALM      30.01S
OELWEIN        PTCLDY    55  54  94 CALM      30.00F
$$

...ELSEWHERE IN IOWA...


CITY           SKY/WX    TMP DP  RH WIND       PRES   REMARKS
DES MOINES     CLOUDY    63  54  72 CALM      29.98F
IOWA CITY      CLOUDY    62  54  74 NE6       29.98F
FORT DODGE     PTCLDY    54  50  87 CALM      30.01F
$$

...NORTHERN ILLINOIS...


CITY           SKY/WX    TMP DP  RH WIND       PRES   REMARKS
CHICAGO-OHARE  CLOUDY    56  49  77 N3        29.97F
CHICAGO-MIDWAY CLOUDY    62  52  69 N6        29.96F
MOLINE         CLOUDY    61  56  83 E5        29.96F
ROCKFORD       CLOUDY    57  49  74 CALM      29.99F
PEORIA         CLOUDY    65  56  72 NE9       29.94F
$$

NOTE: "FAIR" INDICATES FEW OR NO CLOUDS BELOW 12,000 FEET WITH NO
SIGNIFICANT WEATHER AND/OR OBSTRUCTIONS TO VISIBILITY. WIND
SPEEDS ARE IN MILES-PER-HOUR.



USA.gov is the U.S. government's official web portal to all federal, state and local government web resources and services.